This is the latest recevied weather packets stored in our database for station/object W4ZHA. If no packets are shown the sender has not sent any weather packets the latest 10 day(s).
| Time | Temp. | Humidity | Pressure | Rain* | Wind** | Luminosity | Snow |
|---|---|---|---|---|---|---|---|
| 1787751923 | 23.89° C | 67% | 1018.6 hPa | 0 mm | - | 39 W/m² | - |
| 1787751619 | 23.33° C | 67% | 1018.6 hPa | 0 mm | - | 39 W/m² | - |
| 1787751314 | 23.33° C | 67% | 1018.6 hPa | 0 mm | - | 37 W/m² | - |
| 1787751009 | 23.33° C | 67% | 1018.3 hPa | 0 mm | - | 36 W/m² | - |
| 1787750704 | 23.33° C | 68% | 1018.3 hPa | 0 mm | - | 35 W/m² | - |
| 1787750403 | 22.78° C | 67% | 1018.6 hPa | 0 mm | - | 34 W/m² | - |
| 1787750098 | 22.78° C | 67% | 1018.3 hPa | 0 mm | - | 34 W/m² | - |
| 1787749795 | 22.78° C | 66% | 1018.3 hPa | 0 mm | - | 30 W/m² | - |
| 1787749490 | 22.78° C | 66% | 1018.3 hPa | 0 mm | - | 29 W/m² | - |
| 1787749189 | 22.78° C | 66% | 1018.3 hPa | 0 mm | - | 31 W/m² | - |
| 1787748885 | 22.78° C | 66% | 1018.3 hPa | 0 mm | - | 29 W/m² | - |
| 1787748579 | 22.22° C | 67% | 1018.3 hPa | 0 mm | - | 29 W/m² | - |
| 1787748275 | 21.67° C | 68% | 1017.9 hPa | 0 mm | - | 28 W/m² | - |
| 1787747971 | 20.56° C | 70% | 1018.6 hPa | 0 mm | - | 27 W/m² | - |
| 1787747671 | 20° C | 71% | 1018.3 hPa | 0 mm | - | 27 W/m² | - |
| 1787747365 | 20° C | 75% | 1018.3 hPa | 0 mm | - | 25 W/m² | - |
| 1787747061 | 19.44° C | 78% | 1018.3 hPa | 0 mm | - | 23 W/m² | - |
| 1787746756 | 19.44° C | 86% | 1018.3 hPa | 0 mm | - | 22 W/m² | - |
| 1787746455 | 19.44° C | 87% | 1018.3 hPa | 0 mm | - | 20 W/m² | - |
| 1787746149 | 19.44° C | 88% | 1018.6 hPa | 0 mm | - | 19 W/m² | - |
| 1787745844 | 19.44° C | 91% | 1018.3 hPa | 0 mm | - | 18 W/m² | - |
| 1787745542 | 18.89° C | 91% | 1018.3 hPa | 0 mm | - | 17 W/m² | - |
| 1787745236 | 18.89° C | 91% | 1018.6 hPa | 0 mm | - | 17 W/m² | - |
| 1787744932 | 18.33° C | 91% | 1018.6 hPa | 0 mm | - | 16 W/m² | - |
| 1787744629 | 18.33° C | 89% | 1018.3 hPa | 0 mm | - | 13 W/m² | - |
* Rain latest hour (hover to see other rain measurements)
** Current wind speed in m/s (hover to see current wind gust speed)